Year,Month,Day,Hour,Minute,Value (Times are PST for windgust in km/hr)
2016,03,12,00,06,1.60
2016,03,12,00,07,1.60
2016,03,12,00,08,1.60
2016,03,12,00,15,1.60
2016,03,12,00,16,1.60
2016,03,12,00,17,1.60
2016,03,12,00,18,1.60
2016,03,12,00,21,1.60
2016,03,12,00,22,1.60
2016,03,12,00,27,1.60
2016,03,12,00,42,1.60
2016,03,12,00,43,3.20
2016,03,12,00,44,3.20
2016,03,12,00,45,3.20
2016,03,12,00,46,3.20
2016,03,12,00,47,3.20
2016,03,12,00,48,3.20
2016,03,12,00,49,1.60
2016,03,12,00,50,1.60
2016,03,12,00,51,1.60
2016,03,12,00,54,1.60
2016,03,12,00,55,1.60
2016,03,12,00,56,1.60
2016,03,12,00,57,1.60
2016,03,12,00,58,1.60
2016,03,12,00,59,1.60
2016,03,12,01,00,1.60
2016,03,12,01,01,3.20
2016,03,12,01,02,1.60
2016,03,12,01,03,1.60
2016,03,12,01,04,1.60
2016,03,12,01,05,1.60
2016,03,12,01,09,1.60
2016,03,12,01,10,1.60
2016,03,12,01,11,1.60
2016,03,12,01,12,1.60
2016,03,12,01,13,1.60
2016,03,12,01,14,3.20
2016,03,12,01,15,3.20
2016,03,12,01,16,4.80
2016,03,12,01,17,4.80
2016,03,12,01,18,4.80
2016,03,12,01,19,4.80
2016,03,12,01,20,3.20
2016,03,12,01,21,1.60
2016,03,12,01,22,1.60
2016,03,12,01,24,1.60
2016,03,12,01,25,3.20
2016,03,12,01,26,3.20
2016,03,12,01,27,3.20
2016,03,12,01,28,4.80
2016,03,12,01,29,4.80
2016,03,12,01,30,3.20
2016,03,12,01,31,1.60
2016,03,12,01,32,4.80
2016,03,12,01,33,4.80
2016,03,12,01,34,4.80
2016,03,12,01,35,6.40
2016,03,12,01,36,4.80
2016,03,12,01,37,4.80
2016,03,12,01,38,4.80
2016,03,12,01,39,3.20
2016,03,12,01,40,1.60
2016,03,12,01,41,1.60
2016,03,12,01,42,3.20
2016,03,12,01,43,3.20
2016,03,12,01,44,1.60
2016,03,12,01,45,3.20
2016,03,12,01,46,3.20
2016,03,12,01,47,3.20
2016,03,12,01,48,3.20
2016,03,12,01,49,3.20
2016,03,12,01,50,3.20
2016,03,12,01,51,1.60
2016,03,12,01,52,1.60
2016,03,12,01,53,1.60
2016,03,12,01,54,1.60
2016,03,12,01,59,3.20
2016,03,12,02,00,3.20
2016,03,12,02,01,3.20
2016,03,12,02,02,3.20
2016,03,12,02,03,1.60
2016,03,12,02,04,1.60
2016,03,12,02,05,1.60
2016,03,12,02,07,1.60
2016,03,12,02,08,3.20
2016,03,12,02,09,1.60
2016,03,12,02,14,1.60
2016,03,12,02,15,3.20
2016,03,12,02,16,3.20
2016,03,12,02,18,1.60
2016,03,12,02,19,1.60
2016,03,12,02,20,1.60
2016,03,12,02,21,3.20
2016,03,12,02,22,3.20
2016,03,12,02,23,3.20
2016,03,12,02,24,1.60
2016,03,12,02,25,1.60
2016,03,12,02,26,1.60
2016,03,12,02,27,1.60
2016,03,12,02,30,1.60
2016,03,12,02,31,4.80
2016,03,12,02,32,4.80
2016,03,12,02,33,6.40
2016,03,12,02,34,4.80
2016,03,12,02,35,4.80
2016,03,12,02,36,4.80
2016,03,12,02,37,4.80
2016,03,12,02,38,3.20
2016,03,12,02,39,3.20
2016,03,12,02,40,1.60
2016,03,12,02,41,1.60
2016,03,12,02,42,1.60
2016,03,12,02,43,3.20
2016,03,12,02,44,1.60
2016,03,12,02,45,1.60
2016,03,12,02,46,1.60
2016,03,12,02,47,1.60
2016,03,12,02,48,1.60
2016,03,12,02,49,3.20
2016,03,12,02,50,3.20
2016,03,12,02,51,4.80
2016,03,12,02,52,4.80
2016,03,12,02,53,4.80
2016,03,12,02,54,3.20
2016,03,12,02,55,3.20
2016,03,12,02,56,3.20
2016,03,12,02,57,3.20
2016,03,12,02,58,1.60
2016,03,12,02,59,1.60
2016,03,12,03,04,1.60
2016,03,12,03,05,1.60
2016,03,12,03,06,1.60
2016,03,12,03,11,3.20
2016,03,12,03,12,3.20
2016,03,12,03,13,3.20
2016,03,12,03,14,1.60
2016,03,12,03,15,1.60
2016,03,12,03,16,1.60
2016,03,12,03,17,1.60
2016,03,12,03,18,1.60
2016,03,12,03,19,1.60
2016,03,12,03,21,1.60
2016,03,12,03,22,1.60
2016,03,12,03,23,1.60
2016,03,12,03,26,1.60
2016,03,12,03,27,1.60
2016,03,12,03,28,3.20
2016,03,12,03,29,1.60
2016,03,12,03,30,3.20
2016,03,12,03,31,3.20
2016,03,12,03,32,3.20
2016,03,12,03,33,3.20
2016,03,12,03,34,1.60
2016,03,12,03,35,1.60
2016,03,12,03,36,3.20
2016,03,12,03,37,1.60
2016,03,12,03,40,1.60
2016,03,12,03,43,3.20
2016,03,12,03,44,4.80
2016,03,12,03,45,3.20
2016,03,12,03,46,3.20
2016,03,12,03,47,3.20
2016,03,12,03,48,1.60
2016,03,12,03,49,1.60
2016,03,12,03,50,1.60
2016,03,12,03,53,3.20
2016,03,12,03,54,3.20
2016,03,12,03,55,1.60
2016,03,12,03,56,1.60
2016,03,12,03,57,1.60
2016,03,12,03,58,3.20
2016,03,12,03,59,3.20
2016,03,12,04,00,3.20
2016,03,12,04,01,3.20
2016,03,12,04,02,3.20
2016,03,12,04,03,3.20
2016,03,12,04,04,3.20
2016,03,12,04,05,3.20
2016,03,12,04,06,3.20
2016,03,12,04,07,3.20
2016,03,12,04,08,3.20
2016,03,12,04,09,4.80
2016,03,12,04,10,3.20
2016,03,12,04,11,4.80
2016,03,12,04,12,4.80
2016,03,12,04,13,6.40
2016,03,12,04,14,4.80
2016,03,12,04,15,3.20
2016,03,12,04,16,3.20
2016,03,12,04,17,4.80
2016,03,12,04,18,4.80
2016,03,12,04,19,4.80
2016,03,12,04,20,3.20
2016,03,12,04,21,3.20
2016,03,12,04,22,3.20
2016,03,12,04,23,3.20
2016,03,12,04,24,4.80
2016,03,12,04,25,3.20
2016,03,12,04,26,1.60
2016,03,12,04,28,1.60
2016,03,12,04,29,3.20
2016,03,12,04,30,3.20
2016,03,12,04,31,1.60
2016,03,12,04,32,1.60
2016,03,12,04,33,1.60
2016,03,12,04,47,1.60
2016,03,12,04,48,1.60
2016,03,12,04,49,1.60
2016,03,12,04,50,1.60
2016,03,12,04,51,3.20
2016,03,12,04,52,1.60
2016,03,12,04,54,1.60
2016,03,12,04,55,1.60
2016,03,12,04,56,1.60
2016,03,12,05,01,1.60
2016,03,12,05,02,3.20
2016,03,12,05,03,3.20
2016,03,12,05,04,1.60
2016,03,12,05,05,1.60
2016,03,12,05,06,1.60
2016,03,12,05,09,1.60
2016,03,12,05,10,1.60
2016,03,12,05,11,3.20
2016,03,12,05,12,3.20
2016,03,12,05,13,4.80
2016,03,12,05,14,4.80
2016,03,12,05,15,6.40
2016,03,12,05,16,6.40
2016,03,12,05,17,4.80
2016,03,12,05,18,6.40
2016,03,12,05,19,6.40
2016,03,12,05,20,8.10
2016,03,12,05,21,6.40
2016,03,12,05,22,8.10
2016,03,12,05,23,8.10
2016,03,12,05,24,6.40
2016,03,12,05,25,6.40
2016,03,12,05,26,8.10
2016,03,12,05,27,4.80
2016,03,12,05,28,4.80
2016,03,12,05,29,4.80
2016,03,12,05,30,6.40
2016,03,12,05,31,6.40
2016,03,12,05,32,6.40
2016,03,12,05,33,6.40
2016,03,12,05,34,6.40
2016,03,12,05,35,6.40
2016,03,12,05,36,4.80
2016,03,12,05,37,4.80
2016,03,12,05,38,4.80
2016,03,12,05,39,3.20
2016,03,12,05,40,3.20
2016,03,12,05,41,4.80
2016,03,12,05,42,3.20
2016,03,12,05,43,1.60
2016,03,12,05,44,3.20
2016,03,12,05,45,3.20
2016,03,12,05,46,3.20
2016,03,12,05,47,3.20
2016,03,12,05,48,3.20
2016,03,12,05,49,3.20
2016,03,12,05,50,3.20
2016,03,12,05,51,3.20
2016,03,12,05,52,3.20
2016,03,12,05,53,1.60
2016,03,12,05,55,1.60
2016,03,12,05,56,1.60
2016,03,12,05,57,3.20
2016,03,12,05,58,1.60
2016,03,12,05,59,3.20
2016,03,12,06,00,4.80
2016,03,12,06,01,8.10
2016,03,12,06,02,4.80
2016,03,12,06,03,3.20
2016,03,12,06,04,1.60
2016,03,12,06,05,4.80
2016,03,12,06,06,4.80
2016,03,12,06,07,4.80
2016,03,12,06,08,3.20
2016,03,12,06,09,3.20
2016,03,12,06,10,4.80
2016,03,12,06,11,4.80
2016,03,12,06,12,8.10
2016,03,12,06,13,8.10
2016,03,12,06,14,8.10
2016,03,12,06,15,6.40
2016,03,12,06,16,3.20
2016,03,12,06,17,4.80
2016,03,12,06,18,4.80
2016,03,12,06,19,8.10
2016,03,12,06,20,8.10
2016,03,12,06,21,8.10
2016,03,12,06,22,6.40
2016,03,12,06,23,4.80
2016,03,12,06,24,4.80
2016,03,12,06,25,6.40
2016,03,12,06,26,6.40
2016,03,12,06,27,4.80
2016,03,12,06,28,4.80
2016,03,12,06,29,3.20
2016,03,12,06,30,3.20
2016,03,12,06,31,3.20
2016,03,12,06,32,3.20
2016,03,12,06,33,4.80
2016,03,12,06,34,3.20
2016,03,12,06,35,4.80
2016,03,12,06,36,4.80
2016,03,12,06,37,4.80
2016,03,12,06,38,4.80
2016,03,12,06,39,4.80
2016,03,12,06,40,4.80
2016,03,12,06,41,4.80
2016,03,12,06,42,4.80
2016,03,12,06,43,4.80
2016,03,12,06,44,6.40
2016,03,12,06,45,6.40
2016,03,12,06,46,8.10
2016,03,12,06,47,6.40
2016,03,12,06,48,8.10
2016,03,12,06,49,6.40
2016,03,12,06,50,6.40
2016,03,12,06,51,6.40
2016,03,12,06,52,8.10
2016,03,12,06,53,6.40
2016,03,12,06,54,6.40
2016,03,12,06,55,6.40
2016,03,12,06,56,6.40
2016,03,12,06,57,4.80
2016,03,12,06,58,4.80
2016,03,12,06,59,4.80
2016,03,12,07,00,3.20
2016,03,12,07,01,11.30
2016,03,12,07,02,9.60
2016,03,12,07,03,8.10
2016,03,12,07,04,6.40
2016,03,12,07,05,6.40
2016,03,12,07,06,6.40
2016,03,12,07,07,6.40
2016,03,12,07,08,8.10
2016,03,12,07,09,4.80
2016,03,12,07,10,6.40
2016,03,12,07,11,3.20
2016,03,12,07,12,4.80
2016,03,12,07,13,4.80
2016,03,12,07,14,4.80
2016,03,12,07,15,8.10
2016,03,12,07,16,4.80
2016,03,12,07,17,8.10
2016,03,12,07,18,9.60
2016,03,12,07,19,19.30
2016,03,12,07,20,16.10
2016,03,12,07,21,17.70
2016,03,12,07,22,16.10
2016,03,12,07,23,16.10
2016,03,12,07,24,16.10
2016,03,12,07,25,12.90
2016,03,12,07,26,17.70
2016,03,12,07,27,20.90
2016,03,12,07,28,17.70
2016,03,12,07,29,14.50
2016,03,12,07,30,20.90
2016,03,12,07,31,17.70
2016,03,12,07,32,22.50
2016,03,12,07,33,20.90
2016,03,12,07,34,20.90
2016,03,12,07,35,29.00
2016,03,12,07,36,19.30
2016,03,12,07,37,20.90
2016,03,12,07,38,19.30
2016,03,12,07,39,17.70
2016,03,12,07,40,14.50
2016,03,12,07,41,16.10
2016,03,12,07,42,24.20
2016,03,12,07,43,29.00
2016,03,12,07,44,17.70
2016,03,12,07,45,17.70
2016,03,12,07,46,20.90
2016,03,12,07,47,19.30
2016,03,12,07,48,16.10
2016,03,12,07,49,14.50
2016,03,12,07,50,11.30
2016,03,12,07,51,17.70
2016,03,12,07,52,14.50
2016,03,12,07,53,11.30
2016,03,12,07,54,8.10
2016,03,12,07,55,8.10
2016,03,12,07,56,8.10
2016,03,12,07,57,6.40
2016,03,12,07,58,9.60
2016,03,12,07,59,20.90
2016,03,12,08,00,16.10
2016,03,12,08,01,16.10
2016,03,12,08,02,12.90
2016,03,12,08,03,11.30
2016,03,12,08,04,25.70
2016,03,12,08,05,24.20
2016,03,12,08,06,14.50
2016,03,12,08,07,25.70
2016,03,12,08,08,19.30
2016,03,12,08,09,17.70
2016,03,12,08,10,20.90
2016,03,12,08,11,19.30
2016,03,12,08,12,22.50
2016,03,12,08,13,22.50
2016,03,12,08,14,20.90
2016,03,12,08,15,22.50
2016,03,12,08,16,27.40
2016,03,12,08,17,22.50
2016,03,12,08,18,22.50
2016,03,12,08,19,19.30
2016,03,12,08,20,14.50
2016,03,12,08,21,16.10
2016,03,12,08,22,14.50
2016,03,12,08,23,11.30
2016,03,12,08,24,16.10
2016,03,12,08,25,14.50
2016,03,12,08,26,17.70
2016,03,12,08,27,17.70
2016,03,12,08,28,16.10
2016,03,12,08,29,19.30
2016,03,12,08,30,16.10
2016,03,12,08,31,17.70
2016,03,12,08,32,16.10
2016,03,12,08,33,16.10
2016,03,12,08,34,17.70
2016,03,12,08,35,16.10
2016,03,12,08,36,16.10
2016,03,12,08,37,11.30
2016,03,12,08,38,11.30
2016,03,12,08,39,9.60
2016,03,12,08,40,9.60
2016,03,12,08,41,12.90
2016,03,12,08,42,9.60
2016,03,12,08,43,20.90
2016,03,12,08,44,12.90
2016,03,12,08,45,9.60
2016,03,12,08,46,9.60
2016,03,12,08,47,16.10
2016,03,12,08,48,16.10
2016,03,12,08,49,22.50
2016,03,12,08,50,16.10
2016,03,12,08,51,20.90
2016,03,12,08,52,16.10
2016,03,12,08,53,16.10
2016,03,12,08,54,14.50
2016,03,12,08,55,16.10
2016,03,12,08,56,16.10
2016,03,12,08,57,14.50
2016,03,12,08,58,14.50
2016,03,12,08,59,14.50
2016,03,12,09,00,11.30
2016,03,12,09,01,9.60
2016,03,12,09,02,20.90
2016,03,12,09,03,11.30
2016,03,12,09,04,12.90
2016,03,12,09,05,16.10
2016,03,12,09,06,9.60
2016,03,12,09,07,8.10
2016,03,12,09,08,14.50
2016,03,12,09,09,14.50
2016,03,12,09,10,11.30
2016,03,12,09,11,9.60
2016,03,12,09,12,11.30
2016,03,12,09,13,11.30
2016,03,12,09,14,14.50
2016,03,12,09,15,14.50
2016,03,12,09,16,8.10
2016,03,12,09,17,6.40
2016,03,12,09,18,9.60
2016,03,12,09,19,8.10
2016,03,12,09,20,14.50
2016,03,12,09,21,12.90
2016,03,12,09,22,11.30
2016,03,12,09,23,4.80
2016,03,12,09,24,12.90
2016,03,12,09,25,17.70
2016,03,12,09,26,19.30
2016,03,12,09,27,11.30
2016,03,12,09,28,17.70
2016,03,12,09,29,16.10
2016,03,12,09,30,14.50
2016,03,12,09,31,14.50
2016,03,12,09,32,20.90
2016,03,12,09,33,17.70
2016,03,12,09,34,17.70
2016,03,12,09,35,14.50
2016,03,12,09,36,16.10
2016,03,12,09,37,17.70
2016,03,12,09,38,19.30
2016,03,12,09,39,24.20
2016,03,12,09,40,19.30
2016,03,12,09,41,14.50
2016,03,12,09,42,9.60
2016,03,12,09,43,17.70
2016,03,12,09,44,16.10
2016,03,12,09,45,8.10
2016,03,12,09,46,17.70
2016,03,12,09,47,16.10
2016,03,12,09,48,14.50
2016,03,12,09,49,12.90
2016,03,12,09,50,8.10
2016,03,12,09,51,11.30
2016,03,12,09,52,11.30
2016,03,12,09,53,11.30
2016,03,12,09,54,8.10
2016,03,12,09,55,8.10
2016,03,12,09,56,8.10
2016,03,12,09,57,8.10
2016,03,12,09,58,11.30
2016,03,12,09,59,9.60
2016,03,12,10,00,14.50
2016,03,12,10,01,14.50
2016,03,12,10,02,12.90
2016,03,12,10,03,11.30
2016,03,12,10,04,17.70
2016,03,12,10,05,12.90
2016,03,12,10,06,14.50
2016,03,12,10,07,17.70
2016,03,12,10,08,9.60
2016,03,12,10,09,6.40
2016,03,12,10,10,9.60
2016,03,12,10,11,11.30
2016,03,12,10,12,14.50
2016,03,12,10,13,14.50
2016,03,12,10,14,11.30
2016,03,12,10,15,11.30
2016,03,12,10,16,9.60
2016,03,12,10,17,8.10
2016,03,12,10,18,4.80
2016,03,12,10,19,9.60
2016,03,12,10,20,11.30
2016,03,12,10,21,8.10
2016,03,12,10,22,4.80
2016,03,12,10,23,9.60
2016,03,12,10,24,11.30
2016,03,12,10,25,9.60
2016,03,12,10,26,11.30
2016,03,12,10,27,11.30
2016,03,12,10,28,8.10
2016,03,12,10,29,11.30
2016,03,12,10,30,19.30
2016,03,12,10,31,20.90
2016,03,12,10,32,17.70
2016,03,12,10,33,17.70
2016,03,12,10,34,16.10
2016,03,12,10,35,16.10
2016,03,12,10,36,11.30
2016,03,12,10,37,11.30
2016,03,12,10,38,11.30
2016,03,12,10,39,9.60
2016,03,12,10,40,9.60
2016,03,12,10,41,12.90
2016,03,12,10,42,11.30
2016,03,12,10,43,9.60
2016,03,12,10,44,6.40
2016,03,12,10,45,14.50
2016,03,12,10,46,11.30
2016,03,12,10,47,11.30
2016,03,12,10,48,9.60
2016,03,12,10,49,8.10
2016,03,12,10,50,8.10
2016,03,12,10,51,9.60
2016,03,12,10,52,8.10
2016,03,12,10,53,4.80
2016,03,12,10,54,11.30
2016,03,12,10,55,8.10
2016,03,12,10,56,8.10
2016,03,12,10,57,11.30
2016,03,12,10,58,8.10
2016,03,12,10,59,6.40
2016,03,12,11,00,4.80
2016,03,12,11,01,6.40
2016,03,12,11,02,6.40
2016,03,12,11,03,3.20
2016,03,12,11,04,1.60
2016,03,12,11,05,3.20
2016,03,12,11,06,4.80
2016,03,12,11,07,6.40
2016,03,12,11,08,8.10
2016,03,12,11,09,6.40
2016,03,12,11,10,8.10
2016,03,12,11,11,6.40
2016,03,12,11,12,4.80
2016,03,12,11,13,8.10
2016,03,12,11,14,9.60
2016,03,12,11,15,12.90
2016,03,12,11,16,14.50
2016,03,12,11,17,9.60
2016,03,12,11,18,11.30
2016,03,12,11,19,16.10
2016,03,12,11,20,8.10
2016,03,12,11,21,11.30
2016,03,12,11,22,9.60
2016,03,12,11,23,19.30
2016,03,12,11,24,17.70
2016,03,12,11,25,11.30
2016,03,12,11,26,11.30
2016,03,12,11,27,12.90
2016,03,12,11,28,16.10
2016,03,12,11,29,14.50
2016,03,12,11,30,16.10
2016,03,12,11,31,6.40
2016,03,12,11,32,9.60
2016,03,12,11,33,12.90
2016,03,12,11,34,14.50
2016,03,12,11,35,8.10
2016,03,12,11,36,14.50
2016,03,12,11,37,19.30
2016,03,12,11,38,17.70
2016,03,12,11,39,16.10
2016,03,12,11,40,16.10
2016,03,12,11,41,16.10
2016,03,12,11,42,9.60
2016,03,12,11,43,8.10
2016,03,12,11,44,11.30
2016,03,12,11,45,17.70
2016,03,12,11,46,17.70
2016,03,12,11,47,12.90
2016,03,12,11,48,9.60
2016,03,12,11,49,16.10
2016,03,12,11,50,16.10
2016,03,12,11,51,16.10
2016,03,12,11,52,11.30
2016,03,12,11,53,8.10
2016,03,12,11,54,11.30
2016,03,12,11,55,14.50
2016,03,12,11,56,11.30
2016,03,12,11,57,9.60
2016,03,12,11,58,8.10
2016,03,12,11,59,9.60
2016,03,12,12,00,9.60
2016,03,12,12,01,9.60
2016,03,12,12,02,11.30
2016,03,12,12,03,6.40
2016,03,12,12,04,6.40
2016,03,12,12,05,8.10
2016,03,12,12,06,3.20
2016,03,12,12,07,6.40
2016,03,12,12,08,8.10
2016,03,12,12,09,9.60
2016,03,12,12,10,14.50
2016,03,12,12,11,16.10
2016,03,12,12,12,12.90
2016,03,12,12,13,17.70
2016,03,12,12,14,16.10
2016,03,12,12,15,17.70
2016,03,12,12,16,16.10
2016,03,12,12,17,11.30
2016,03,12,12,18,9.60
2016,03,12,12,19,9.60
2016,03,12,12,20,11.30
2016,03,12,12,21,9.60
2016,03,12,12,22,11.30
2016,03,12,12,23,4.80
2016,03,12,12,24,8.10
2016,03,12,12,25,9.60
2016,03,12,12,26,9.60
2016,03,12,12,27,9.60
2016,03,12,12,28,8.10
2016,03,12,12,29,8.10
2016,03,12,12,30,4.80
2016,03,12,12,31,9.60
2016,03,12,12,32,6.40
2016,03,12,12,33,9.60
2016,03,12,12,34,11.30
2016,03,12,12,35,8.10
2016,03,12,12,36,9.60
2016,03,12,12,37,9.60
2016,03,12,12,38,9.60
2016,03,12,12,39,9.60
2016,03,12,12,40,11.30
2016,03,12,12,41,11.30
2016,03,12,12,42,11.30
2016,03,12,12,43,11.30
2016,03,12,12,44,11.30
2016,03,12,12,45,6.40
2016,03,12,12,46,11.30
2016,03,12,12,47,9.60
2016,03,12,12,48,11.30
2016,03,12,12,49,11.30
2016,03,12,12,50,14.50
2016,03,12,12,51,11.30
2016,03,12,12,52,11.30
2016,03,12,12,53,6.40
2016,03,12,12,54,11.30
2016,03,12,12,55,16.10
2016,03,12,12,56,9.60
2016,03,12,12,57,14.50
2016,03,12,12,58,9.60
2016,03,12,12,59,16.10
2016,03,12,13,00,12.90
2016,03,12,13,01,8.10
2016,03,12,13,02,8.10
2016,03,12,13,03,6.40
2016,03,12,13,04,6.40
2016,03,12,13,05,6.40
2016,03,12,13,06,9.60
2016,03,12,13,07,11.30
2016,03,12,13,08,9.60
2016,03,12,13,09,12.90
2016,03,12,13,10,14.50
2016,03,12,13,11,8.10
2016,03,12,13,12,3.20
2016,03,12,13,13,6.40
2016,03,12,13,14,9.60
2016,03,12,13,15,6.40
2016,03,12,13,16,16.10
2016,03,12,13,17,14.50
2016,03,12,13,18,11.30
2016,03,12,13,19,8.10
2016,03,12,13,20,11.30
2016,03,12,13,21,11.30
2016,03,12,13,22,9.60
2016,03,12,13,23,8.10
2016,03,12,13,24,6.40
2016,03,12,13,25,8.10
2016,03,12,13,26,9.60
2016,03,12,13,27,11.30
2016,03,12,13,28,11.30
2016,03,12,13,29,9.60
2016,03,12,13,30,11.30
2016,03,12,13,31,14.50
2016,03,12,13,32,12.90
2016,03,12,13,33,9.60
2016,03,12,13,34,11.30
2016,03,12,13,35,8.10
2016,03,12,13,36,17.70
2016,03,12,13,37,9.60
2016,03,12,13,38,9.60
2016,03,12,13,39,9.60
2016,03,12,13,40,8.10
2016,03,12,13,41,4.80
2016,03,12,13,42,11.30
2016,03,12,13,43,11.30
2016,03,12,13,44,11.30
2016,03,12,13,45,11.30
2016,03,12,13,46,8.10
2016,03,12,13,47,11.30
2016,03,12,13,48,6.40
2016,03,12,13,49,6.40
2016,03,12,13,50,9.60
2016,03,12,13,51,11.30
2016,03,12,13,52,9.60
2016,03,12,13,53,6.40
2016,03,12,13,54,9.60
2016,03,12,13,55,8.10
2016,03,12,13,56,9.60
2016,03,12,13,57,8.10
2016,03,12,13,58,8.10
2016,03,12,13,59,6.40
2016,03,12,14,00,3.20
2016,03,12,14,01,11.30
2016,03,12,14,02,14.50
2016,03,12,14,03,11.30
2016,03,12,14,04,11.30
2016,03,12,14,05,9.60
2016,03,12,14,06,9.60
2016,03,12,14,07,6.40
2016,03,12,14,08,9.60
2016,03,12,14,09,6.40
2016,03,12,14,10,4.80
2016,03,12,14,11,4.80
2016,03,12,14,12,8.10
2016,03,12,14,13,8.10
2016,03,12,14,14,11.30
2016,03,12,14,15,9.60
2016,03,12,14,16,9.60
2016,03,12,14,17,6.40
2016,03,12,14,18,3.20
2016,03,12,14,19,4.80
2016,03,12,14,20,6.40
2016,03,12,14,21,9.60
2016,03,12,14,22,8.10
2016,03,12,14,23,8.10
2016,03,12,14,24,8.10
2016,03,12,14,25,8.10
2016,03,12,14,26,11.30
2016,03,12,14,27,8.10
2016,03,12,14,28,9.60
2016,03,12,14,29,9.60
2016,03,12,14,30,6.40
2016,03,12,14,31,4.80
2016,03,12,14,32,6.40
2016,03,12,14,33,6.40
2016,03,12,14,34,6.40
2016,03,12,14,35,6.40
2016,03,12,14,36,4.80
2016,03,12,14,37,4.80
2016,03,12,14,38,1.60
2016,03,12,14,39,1.60
2016,03,12,14,40,1.60
2016,03,12,14,41,3.20
2016,03,12,14,42,4.80
2016,03,12,14,43,8.10
2016,03,12,14,44,11.30
2016,03,12,14,45,12.90
2016,03,12,14,46,11.30
2016,03,12,14,47,6.40
2016,03,12,14,48,6.40
2016,03,12,14,49,9.60
2016,03,12,14,50,9.60
2016,03,12,14,51,8.10
2016,03,12,14,52,8.10
2016,03,12,14,53,14.50
2016,03,12,14,54,14.50
2016,03,12,14,55,11.30
2016,03,12,14,56,11.30
2016,03,12,14,57,11.30
2016,03,12,14,58,8.10
2016,03,12,14,59,14.50
2016,03,12,15,00,14.50
2016,03,12,15,01,11.30
2016,03,12,15,02,9.60
2016,03,12,15,03,6.40
2016,03,12,15,04,11.30
2016,03,12,15,05,9.60
2016,03,12,15,06,14.50
2016,03,12,15,07,14.50
2016,03,12,15,08,9.60
2016,03,12,15,09,6.40
2016,03,12,15,10,6.40
2016,03,12,15,11,6.40
2016,03,12,15,12,4.80
2016,03,12,15,13,3.20
2016,03,12,15,14,6.40
2016,03,12,15,15,12.90
2016,03,12,15,16,9.60
2016,03,12,15,17,12.90
2016,03,12,15,18,6.40
2016,03,12,15,19,9.60
2016,03,12,15,20,4.80
2016,03,12,15,21,6.40
2016,03,12,15,22,20.90
2016,03,12,15,23,19.30
2016,03,12,15,24,17.70
2016,03,12,15,25,19.30
2016,03,12,15,26,20.90
2016,03,12,15,27,17.70
2016,03,12,15,28,24.20
2016,03,12,15,29,22.50
2016,03,12,15,30,20.90
2016,03,12,15,31,16.10
2016,03,12,15,32,16.10
2016,03,12,15,33,20.90
2016,03,12,15,34,20.90
2016,03,12,15,35,14.50
2016,03,12,15,36,17.70
2016,03,12,15,37,17.70
2016,03,12,15,38,14.50
2016,03,12,15,39,14.50
2016,03,12,15,40,16.10
2016,03,12,15,41,20.90
2016,03,12,15,42,22.50
2016,03,12,15,43,20.90
2016,03,12,15,44,19.30
2016,03,12,15,45,24.20
2016,03,12,15,46,20.90
2016,03,12,15,47,17.70
2016,03,12,15,48,14.50
2016,03,12,15,49,17.70
2016,03,12,15,50,17.70
2016,03,12,15,51,16.10
2016,03,12,15,52,17.70
2016,03,12,15,53,29.00
2016,03,12,15,54,32.20
2016,03,12,15,55,19.30
2016,03,12,15,56,20.90
2016,03,12,15,57,19.30
2016,03,12,15,58,19.30
2016,03,12,15,59,22.50
2016,03,12,16,00,22.50
2016,03,12,16,01,20.90
2016,03,12,16,02,22.50
2016,03,12,16,03,24.20
2016,03,12,16,04,25.70
2016,03,12,16,05,25.70
2016,03,12,16,06,20.90
2016,03,12,16,07,19.30
2016,03,12,16,08,14.50
2016,03,12,16,09,17.70
2016,03,12,16,10,19.30
2016,03,12,16,11,17.70
2016,03,12,16,12,11.30
2016,03,12,16,13,17.70
2016,03,12,16,14,17.70
2016,03,12,16,15,11.30
2016,03,12,16,16,9.60
2016,03,12,16,17,9.60
2016,03,12,16,18,17.70
2016,03,12,16,19,12.90
2016,03,12,16,20,11.30
2016,03,12,16,21,9.60
2016,03,12,16,22,9.60
2016,03,12,16,23,12.90
2016,03,12,16,24,11.30
2016,03,12,16,25,16.10
2016,03,12,16,26,6.40
2016,03,12,16,27,9.60
2016,03,12,16,28,11.30
2016,03,12,16,29,11.30
2016,03,12,16,30,8.10
2016,03,12,16,31,17.70
2016,03,12,16,32,16.10
2016,03,12,16,33,11.30
2016,03,12,16,34,9.60
2016,03,12,16,35,8.10
2016,03,12,16,36,16.10
2016,03,12,16,37,14.50
2016,03,12,16,38,3.20
2016,03,12,16,39,6.40
2016,03,12,16,40,9.60
2016,03,12,16,41,8.10
2016,03,12,16,42,4.80
2016,03,12,16,43,6.40
2016,03,12,16,44,12.90
2016,03,12,16,45,14.50
2016,03,12,16,46,14.50
2016,03,12,16,47,14.50
2016,03,12,16,48,17.70
2016,03,12,16,49,16.10
2016,03,12,16,50,9.60
2016,03,12,16,51,11.30
2016,03,12,16,52,11.30
2016,03,12,16,53,9.60
2016,03,12,16,54,11.30
2016,03,12,16,55,11.30
2016,03,12,16,56,19.30
2016,03,12,16,57,19.30
2016,03,12,16,58,12.90
2016,03,12,16,59,11.30
2016,03,12,17,00,11.30
2016,03,12,17,01,8.10
2016,03,12,17,02,9.60
2016,03,12,17,03,9.60
2016,03,12,17,04,9.60
2016,03,12,17,05,11.30
2016,03,12,17,06,11.30
2016,03,12,17,07,17.70
2016,03,12,17,08,16.10
2016,03,12,17,09,11.30
2016,03,12,17,10,11.30
2016,03,12,17,11,17.70
2016,03,12,17,12,12.90
2016,03,12,17,13,14.50
2016,03,12,17,14,17.70
2016,03,12,17,15,11.30
2016,03,12,17,16,8.10
2016,03,12,17,17,16.10
2016,03,12,17,18,14.50
2016,03,12,17,19,6.40
2016,03,12,17,20,8.10
2016,03,12,17,21,14.50
2016,03,12,17,22,17.70
2016,03,12,17,23,16.10
2016,03,12,17,24,16.10
2016,03,12,17,25,17.70
2016,03,12,17,26,9.60
2016,03,12,17,27,11.30
2016,03,12,17,28,19.30
2016,03,12,17,29,19.30
2016,03,12,17,30,16.10
2016,03,12,17,31,16.10
2016,03,12,17,32,17.70
2016,03,12,17,33,16.10
2016,03,12,17,34,19.30
2016,03,12,17,35,16.10
2016,03,12,17,36,20.90
2016,03,12,17,37,16.10
2016,03,12,17,38,17.70
2016,03,12,17,39,12.90
2016,03,12,17,40,9.60
2016,03,12,17,41,14.50
2016,03,12,17,42,11.30
2016,03,12,17,43,8.10
2016,03,12,17,44,4.80
2016,03,12,17,45,6.40
2016,03,12,17,46,4.80
2016,03,12,17,47,4.80
2016,03,12,17,48,6.40
2016,03,12,17,49,8.10
2016,03,12,17,50,8.10
2016,03,12,17,51,12.90
2016,03,12,17,52,9.60
2016,03,12,17,53,9.60
2016,03,12,17,54,9.60
2016,03,12,17,55,11.30
2016,03,12,17,56,11.30
2016,03,12,17,57,8.10
2016,03,12,17,58,4.80
2016,03,12,17,59,8.10
2016,03,12,18,00,4.80
2016,03,12,18,01,9.60
2016,03,12,18,02,6.40
2016,03,12,18,03,6.40
2016,03,12,18,04,11.30
2016,03,12,18,05,8.10
2016,03,12,18,06,8.10
2016,03,12,18,07,4.80
2016,03,12,18,08,4.80
2016,03,12,18,09,4.80
2016,03,12,18,10,6.40
2016,03,12,18,11,6.40
2016,03,12,18,12,4.80
2016,03,12,18,13,6.40
2016,03,12,18,14,4.80
2016,03,12,18,15,6.40
2016,03,12,18,16,3.20
2016,03,12,18,17,6.40
2016,03,12,18,18,8.10
2016,03,12,18,19,4.80
2016,03,12,18,20,6.40
2016,03,12,18,21,9.60
2016,03,12,18,22,8.10
2016,03,12,18,23,4.80
2016,03,12,18,24,3.20
2016,03,12,18,25,3.20
2016,03,12,18,26,4.80
2016,03,12,18,27,4.80
2016,03,12,18,28,4.80
2016,03,12,18,29,4.80
2016,03,12,18,30,4.80
2016,03,12,18,31,3.20
2016,03,12,18,32,4.80
2016,03,12,18,33,6.40
2016,03,12,18,34,4.80
2016,03,12,18,35,8.10
2016,03,12,18,36,6.40
2016,03,12,18,37,4.80
2016,03,12,18,38,9.60
2016,03,12,18,39,11.30
2016,03,12,18,40,9.60
2016,03,12,18,41,16.10
2016,03,12,18,42,8.10
2016,03,12,18,43,9.60
2016,03,12,18,44,8.10
2016,03,12,18,45,6.40
2016,03,12,18,46,4.80
2016,03,12,18,47,6.40
2016,03,12,18,48,8.10
2016,03,12,18,49,9.60
2016,03,12,18,50,8.10
2016,03,12,18,51,6.40
2016,03,12,18,52,6.40
2016,03,12,18,53,6.40
2016,03,12,18,54,9.60
2016,03,12,18,55,11.30
2016,03,12,18,56,11.30
2016,03,12,18,57,6.40
2016,03,12,18,58,4.80
2016,03,12,18,59,4.80
2016,03,12,19,00,4.80
2016,03,12,19,01,4.80
2016,03,12,19,02,1.60
2016,03,12,19,03,3.20
2016,03,12,19,04,4.80
2016,03,12,19,05,3.20
2016,03,12,19,06,3.20
2016,03,12,19,07,3.20
2016,03,12,19,08,3.20
2016,03,12,19,09,1.60
2016,03,12,19,12,1.60
2016,03,12,19,15,1.60
2016,03,12,19,23,1.60
2016,03,12,19,24,1.60
2016,03,12,19,25,1.60
2016,03,12,19,26,1.60
2016,03,12,19,27,1.60
2016,03,12,19,28,3.20